This is the latest recevied weather packets stored in our database for station/object KC7WRB. If no packets are shown the sender has not sent any weather packets the latest 10 day(s).
| Time | Temp. | Humidity | Pressure | Rain* | Wind** | Luminosity | Snow |
|---|---|---|---|---|---|---|---|
| 1788545449 | 23.89° C | 25% | 1013.1 hPa | 0 mm | - | 756 W/m² | - |
| 1788545148 | 22.78° C | 27% | 1013 hPa | 0 mm | - | 749 W/m² | - |
| 1788544844 | 22.78° C | 26% | 1013.2 hPa | 0 mm | - | 744 W/m² | - |
| 1788544538 | 23.33° C | 26% | 1013.3 hPa | 0 mm | - | 730 W/m² | - |
| 1788544236 | 23.33° C | 26% | 1013.2 hPa | 0 mm | - | 721 W/m² | - |
| 1788543931 | 23.33° C | 26% | 1013.4 hPa | 0 mm | - | 710 W/m² | - |
| 1788543628 | 23.33° C | 26% | 1013.2 hPa | 0 mm | - | 697 W/m² | - |
| 1788543328 | 23.33° C | 25% | 1013.1 hPa | 0 mm | - | 684 W/m² | - |
| 1788543023 | 23.33° C | 26% | 1013.2 hPa | 0 mm | - | 671 W/m² | - |
| 1788542719 | 22.78° C | 27% | 1013.2 hPa | 0 mm | - | 659 W/m² | - |
| 1788542418 | 22.78° C | 27% | 1013.2 hPa | 0 mm | - | 645 W/m² | - |
| 1788542114 | 21.67° C | 29% | 1013.2 hPa | 0 mm | - | 633 W/m² | - |
| 1788541810 | 22.22° C | 27% | 1013.2 hPa | 0 mm | - | 626 W/m² | - |
| 1788541505 | 22.78° C | 27% | 1013.1 hPa | 0 mm | - | 609 W/m² | - |
| 1788541200 | 22.78° C | 27% | 1013.4 hPa | 0 mm | - | 592 W/m² | - |
| 1788540899 | 22.22° C | 28% | 1013.1 hPa | 0 mm | - | 571 W/m² | - |
| 1788540599 | 22.22° C | 28% | 1013 hPa | 0 mm | - | 562 W/m² | - |
| 1788540294 | 21.67° C | 28% | 1013.1 hPa | 0 mm | - | 549 W/m² | - |
| 1788539990 | 21.67° C | 30% | 1013.1 hPa | 0 mm | - | 538 W/m² | - |
| 1788539689 | 21.67° C | 30% | 1013.1 hPa | 0 mm | - | 522 W/m² | - |
| 1788539383 | 21.11° C | 31% | 1012.9 hPa | 0 mm | - | 202 W/m² | - |
| 1788539079 | 21.11° C | 31% | 1013.1 hPa | 0 mm | - | 122 W/m² | - |
| 1788538774 | 21.11° C | 31% | 1013 hPa | 0 mm | - | 470 W/m² | - |
| 1788538469 | 21.67° C | 31% | 1013.3 hPa | 0 mm | - | 458 W/m² | - |
| 1788538166 | 21.67° C | 30% | 1013.2 hPa | 0 mm | - | 439 W/m² | - |
* Rain latest hour (hover to see other rain measurements)
** Current wind speed in m/s (hover to see current wind gust speed)